MM0ZFG-5 Weather Reports


Display with metric or nautical units.
time (UTC)temp
F
wind
direction
speed
MPH
gust
MPH
rain 1hr
in
rain 24hr
in
rain mn
in
humidity
%
barometer
mb
20260506190903 50 189 1.0 3.0 0.00 0.00 0.00 64 1010.0
20260506190004 50 195 2.0 3.0 0.00 0.00 0.00 64 1010.1
20260506185403 51 185 2.0 3.0 0.00 0.00 0.00 63 1010.0
20260506184504 51 197 3.0 6.0 0.00 0.00 0.00 63 1010.1
20260506183604 51 196 4.0 6.0 0.00 0.00 0.00 63 1010.1
20260506182704 51 192 4.0 6.0 0.00 0.00 0.00 61 1010.1
20260506181806 52 196 5.0 10.0 0.00 0.00 0.00 62 1010.1
20260506180903 53 208 5.0 10.0 0.00 0.00 0.00 61 1010.0
20260506180004 53 208 5.0 10.0 0.00 0.00 0.00 60 1009.8
20260506175404 52 197 4.0 7.0 0.00 0.00 0.00 63 1009.8
20260506174504 53 194 4.0 7.0 0.00 0.00 0.00 62 1009.8
20260506173624 53 199 4.0 6.0 0.00 0.00 0.00 62 1009.8
20260506172724 54 201 4.0 6.0 0.00 0.00 0.00 61 1009.9
20260506171804 54 202 4.0 8.0 0.00 0.00 0.00 62 1009.9
20260506170924 54 206 4.0 7.0 0.00 0.00 0.00 59 1010.0
20260506170005 54 205 4.0 8.0 0.00 0.00 0.00 58 1010.3
20260506165403 54 210 5.0 8.0 0.00 0.00 0.00 58 1010.3
20260506164504 54 203 4.0 7.0 0.00 0.00 0.00 56 1010.2
20260506163604 55 194 4.0 7.0 0.00 0.00 0.00 55 1010.1
20260506162703 55 205 3.0 6.0 0.00 0.00 0.00 56 1010.4
20260506161804 55 205 3.0 6.0 0.00 0.00 0.00 53 1010.3
20260506160904 55 202 3.0 7.0 0.00 0.00 0.00 53 1010.4
20260506160004 56 204 3.0 6.0 0.00 0.00 0.00 51 1010.5
20260506155403 56 205 2.0 6.0 0.00 0.00 0.00 51 1010.6
20260506154524 56 211 3.0 7.0 0.00 0.00 0.00 51 1010.6
20260506153624 57 207 3.0 6.0 0.00 0.00 0.00 48 1010.4
20260506152703 57 217 3.0 7.0 0.00 0.00 0.00 48 1010.7
20260506151825 57 212 3.0 7.0 0.00 0.00 0.00 47 1010.8
20260506150903 57 216 5.0 8.0 0.00 0.00 0.00 48 1011.0
20260506150004 58 224 5.0 10.0 0.00 0.00 0.00 46 1011.0
20260506145403 58 221 6.0 10.0 0.00 0.00 0.00 48 1011.0
20260506144503 58 216 6.0 10.0 0.00 0.00 0.00 48 1011.0
20260506143603 58 210 6.0 10.0 0.00 0.00 0.00 46 1011.2
20260506142703 59 213 5.0 10.0 0.00 0.00 0.00 46 1011.4
20260506141804 59 205 4.0 10.0 0.00 0.00 0.00 47 1011.2
20260506140904 58 208 4.0 8.0 0.00 0.00 0.00 48 1011.3
20260506140004 58 210 4.0 8.0 0.00 0.00 0.00 46 1011.3
20260506135404 58 206 4.0 8.0 0.00 0.00 0.00 46 1011.6
20260506134503 59 197 4.0 8.0 0.00 0.00 0.00 47 1011.6
20260506133624 58 202 5.0 10.0 0.00 0.00 0.00 48 1011.7
20260506132703 57 222 6.0 11.0 0.00 0.00 0.00 46 1011.8
20260506131804 57 205 5.0 9.0 0.00 0.00 0.00 45 1011.6
20260506130903 58 208 4.0 8.0 0.00 0.00 0.00 45 1011.7
20260506130004 58 182 2.0 4.0 0.00 0.00 0.00 42 1011.7
20260506125403 58 206 3.0 6.0 0.00 0.00 0.00 46 1011.8
20260506124504 58 201 4.0 9.0 0.00 0.00 0.00 43 1012.0
20260506123604 57 191 3.0 7.0 0.00 0.00 0.00 46 1011.8
20260506122703 57 139 2.0 6.0 0.00 0.00 0.00 44 1012.0
20260506121826 57 124 2.0 6.0 0.00 0.00 0.00 44 1011.8
20260506120903 56 159 2.0 6.0 0.00 0.00 0.00 48 1012.1
20260506120006 55 81 2.0 7.0 0.00 0.00 0.00 49 1012.0
20260506115404 54 71 3.0 11.0 0.00 0.00 0.00 47 1012.1
20260506114505 54 65 4.0 10.0 0.00 0.00 0.00 47 1012.3
20260506113624 53 85 4.0 11.0 0.00 0.00 0.00 48 1012.2
20260506112703 52 43 3.0 11.0 0.00 0.00 0.00 47 1012.2
20260506111824 52 79 4.0 11.0 0.00 0.00 0.00 49 1012.4
20260506110903 53 71 3.0 8.0 0.00 0.00 0.00 48 1012.5
20260506110004 52 86 3.0 8.0 0.00 0.00 0.00 50 1012.5
20260506105404 51 75 3.0 8.0 0.00 0.00 0.00 50 1012.7
20260506104503 51 84 3.0 11.0 0.00 0.00 0.00 49 1012.8
20260506103625 51 91 3.0 7.0 0.00 0.00 0.00 52 1012.8
20260506102725 50 97 3.0 11.0 0.00 0.00 0.00 55 1012.9
20260506101804 50 116 3.0 9.0 0.00 0.00 0.00 55 1012.8
20260506100904 49 79 3.0 9.0 0.00 0.00 0.00 54 1012.9
20260506100005 49 69 1.0 11.0 0.00 0.00 0.00 58 1013.1
20260506095403 49 100 1.0 11.0 0.00 0.00 0.00 56 1013.1
20260506094525 48 114 2.0 6.0 0.00 0.00 0.00 60 1013.3
20260506093603 47 113 2.0 9.0 0.00 0.00 0.00 60 1013.1
20260506092703 47 108 3.0 8.0 0.00 0.00 0.00 61 1013.4
20260506091803 47 92 3.0 8.0 0.00 0.00 0.00 59 1013.2
20260506090925 47 108 2.0 8.0 0.00 0.00 0.00 61 1013.6
20260506090004 46 143 2.0 8.0 0.00 0.00 0.00 64 1013.6
20260506085404 45 117 2.0 7.0 0.00 0.00 0.00 64 1013.6
20260506084504 45 174 2.0 4.0 0.00 0.00 0.00 65 1013.7
20260506083605 44 154 2.0 6.0 0.00 0.00 0.00 66 1013.7
20260506082704 44 87 2.0 6.0 0.00 0.00 0.00 67 1013.8
20260506081805 44 73 2.0 6.0 0.00 0.00 0.00 68 1013.6
20260506080905 44 68 2.0 9.0 0.00 0.00 0.00 66 1013.6
20260506072703 44 82 2.0 7.0 0.00 0.00 0.00 69 1013.7
20260506071804 44 67 1.0 7.0 0.00 0.00 0.00 71 1013.5
20260506070905 44 33 2.0 7.0 0.00 0.00 0.00 69 1013.6
20260506061803 42 42 2.0 6.0 0.00 0.00 0.00 72 1013.7
20260506060904 42 32 1.0 4.0 0.00 0.00 0.00 72 1013.5
20260506050904 41 337 1.0 3.0 0.00 0.00 0.00 75 1013.6
20260506044503 41 338 1.0 3.0 0.00 0.00 0.00 75 1013.5
20260506043604 41 333 1.0 3.0 0.00 0.00 0.00 75 1013.6
20260506042704 41 335 1.0 3.0 0.00 0.00 0.00 74 1013.6
20260506041804 41 346 0.0 2.0 0.00 0.00 0.00 74 1013.8
20260506040904 41 345 1.0 2.0 0.00 0.00 0.00 73 1013.8
20260506040024 41 344 0.0 2.0 0.00 0.00 0.00 73 1013.7
20260506035404 42 342 0.0 2.0 0.00 0.00 0.00 73 1013.6
20260506034504 41 348 1.0 4.0 0.00 0.00 0.00 73 1013.8
20260506033624 42 346 1.0 3.0 0.00 0.00 0.00 72 1013.7
20260506032705 42 337 1.0 4.0 0.00 0.00 0.00 72 1013.7
20260506031804 42 344 2.0 7.0 0.00 0.00 0.00 72 1013.6
20260506030903 42 27 2.0 6.0 0.00 0.00 0.00 72 1013.9
20260506030004 42 4 2.0 6.0 0.00 0.00 0.00 72 1014.0
20260506025403 42 350 1.0 3.0 0.00 0.00 0.00 72 1013.9
20260506024503 42 360 1.0 3.0 0.00 0.00 0.00 72 1013.9
20260506023603 42 1 1.0 4.0 0.00 0.00 0.00 72 1013.9
20260506022703 42 342 1.0 6.0 0.00 0.00 0.00 72 1013.9
20260506021804 42 351 1.0 3.0 0.00 0.00 0.00 73 1013.9
20260506020903 42 333 1.0 4.0 0.00 0.00 0.00 72 1013.8
20260506020004 42 339 1.0 3.0 0.00 0.00 0.00 72 1013.9
20260506015404 42 338 1.0 3.0 0.00 0.00 0.00 72 1013.9
20260506014503 42 352 1.0 4.0 0.00 0.00 0.00 72 1013.9
20260506013603 43 14 2.0 6.0 0.00 0.00 0.00 71 1014.1
20260506012703 43 1 2.0 4.0 0.00 0.00 0.00 71 1014.2
20260506011804 43 10 2.0 10.0 0.00 0.00 0.00 71 1014.0
20260506010904 43 11 2.0 10.0 0.00 0.00 0.00 72 1014.0
20260506010004 43 9 1.0 3.0 0.00 0.00 0.00 73 1014.1
20260506005403 43 359 1.0 3.0 0.00 0.00 0.00 73 1014.3
20260506004505 43 8 1.0 3.0 0.00 0.00 0.00 73 1014.4
20260506003626 43 7 2.0 4.0 0.00 0.00 0.00 73 1014.3
20260506002703 43 346 1.0 4.0 0.00 0.00 0.00 73 1014.4
20260506001803 43 336 1.0 4.0 0.00 0.00 0.00 73 1014.3
20260506000905 43 334 1.0 3.0 0.00 0.00 0.00 73 1014.5
20260506000004 43 358 2.0 3.0 0.00 0.00 0.00 73 1014.3
20260505235403 43 342 1.0 3.0 0.00 0.00 0.00 73 1014.4
20260505234503 43 9 1.0 3.0 0.00 0.00 0.00 73 1014.4
20260505233603 43 342 1.0 3.0 0.00 0.00 0.00 73 1014.2
20260505232703 43 354 1.0 6.0 0.00 0.00 0.00 73 1014.2
20260505231805 44 354 1.0 3.0 0.00 0.00 0.00 72 1014.2
20260505230924 44 344 0.0 2.0 0.00 0.00 0.00 72 1014.3
20260505230003 44 343 1.0 3.0 0.00 0.00 0.00 71 1014.3
20260505225405 44 343 1.0 3.0 0.00 0.00 0.00 70 1014.6
20260505224503 44 345 1.0 4.0 0.00 0.00 0.00 69 1014.7
20260505223603 44 353 2.0 9.0 0.00 0.00 0.00 69 1014.6
20260505222703 44 5 2.0 7.0 0.00 0.00 0.00 69 1014.6
20260505221803 44 348 1.0 4.0 0.00 0.00 0.00 69 1014.5
20260505220903 44 3 2.0 7.0 0.00 0.00 0.00 69 1014.5
20260505220004 44 26 3.0 7.0 0.00 0.00 0.00 69 1014.6
20260505215403 44 11 2.0 7.0 0.00 0.00 0.00 69 1014.7
20260505214525 44 355 1.0 4.0 0.00 0.00 0.00 69 1014.5
20260505213627 44 11 1.0 6.0 0.00 0.00 0.00 69 1014.4
20260505212724 44 19 2.0 6.0 0.00 0.00 0.00 69 1014.5
20260505211824 44 359 2.0 7.0 0.00 0.00 0.00 69 1014.2
20260505210903 44 34 3.0 8.0 0.00 0.00 0.00 69 1014.3
20260505210004 45 35 2.0 8.0 0.00 0.00 0.00 70 1014.2
20260505205425 45 27 2.0 8.0 0.00 0.00 0.00 70 1014.3
20260505204505 45 55 3.0 8.0 0.00 0.00 0.00 69 1014.1
20260505203603 45 55 3.0 13.0 0.00 0.00 0.00 68 1014.2
20260505202704 45 2 2.0 9.0 0.00 0.00 0.00 68 1014.1
20260505201803 45 34 3.0 10.0 0.00 0.00 0.00 68 1014.1
20260505200926 45 36 3.0 10.0 0.00 0.00 0.00 67 1013.9
20260505200004 46 46 3.0 9.0 0.00 0.00 0.00 68 1013.9
20260505195403 46 44 3.0 11.0 0.00 0.00 0.00 68 1013.8
20260505194525 46 40 2.0 11.0 0.00 0.00 0.00 68 1013.7
20260505193624 46 58 3.0 9.0 0.00 0.00 0.00 68 1013.6
20260505192704 46 45 4.0 13.0 0.00 0.00 0.00 69 1013.7
20260505191803 46 64 3.0 10.0 0.00 0.00 0.00 69 1013.6